Content
SEND FEEDBACK

Daily
Averages
Monthly
Summary
United States of America

SPARTA, NORTH CAROLINA


Home > North America > United States > North Carolina
Elevation: 294 feet     Latitude: 36 30N     Longitude: 081 07W

WEATHER
 
SELECT A DAY
Number of Records: 391,488;   Date Range: 7/6/98 - 12/19/14
 
SHARE

PRINT THIS DATA

[ ← Previous Day ]
WEATHER ALMANAC - JANUARY 31, 2013
[ Next Day → ]
[ °C ]   °F
Weather ElementAverageHighLow
Temperature28.9 °F43 °F (12:35 am)25.3 °F (7:55 am)
Dewpoint18.6 °F33.1 °F (12:55 am)13.1 °F (5:15 pm)
Humidity65.6 %86 % (1:35 am)51 % (4:55 pm)
Barometer29.72 in29.85 in (8:55 pm)29.44 in (12:35 am)
Wind Speed22.4 mph35.7 mph (1:15 am)
Wind Gust55.2 mph (4:55 am)
Weather ElementAverage
Visibility7.4 mi
Wind DirectionWNW (281 °)

Weather ElementTotal
Precipitation---
Heating Degree Days30.9 (Base 65)
Averaged from 58 records on January 31, 2013
WEATHER CONDITIONS BREAKOUT
WIND DIRECTION BREAKOUT
WEATHER BY HOUR - JANUARY 31, 2013
[ °C ]   °F
Local TimeTemperatureDewpointHumidityBarometerVisibilityWind DirectionWind SpeedGust SpeedPrecipitationEventsConditions
12:35 AM43.0 °F32.0 °F65 %29.44 in10.0 miWSW (250°)18.4 mph32.2 mphOvercast
12:55 AM41.5 °F33.1 °F72 %29.47 in7.0 miWest (260°)25.3 mph38.0 mphDrizzle
1:15 AM38.3 °F31.3 °F76 %29.49 in7.0 miWest (280°)35.7 mph48.3 mphOvercast
1:35 AM36.0 °F32.0 °F86 %29.52 in4.0 miWest (270°)18.4 mph28.8 mphRainRain
2:35 AM34.7 °F29.3 °F81 %29.51 in5.0 miWest (280°)12.7 mph26.5 mphSnowLight Snow
2:55 AM34.3 °F29.1 °F81 %29.51 in4.0 miWNW (290°)23.0 mph40.3 mphSnowLight Snow
3:15 AM33.1 °F27.9 °F81 %29.52 in1.8 miWest (280°)34.5 mph44.9 mphSnowLight Snow
3:35 AM32.5 °F27.1 °F80 %29.54 in2.5 miWest (280°)23.0 mph39.1 mphSnowLight Snow
3:55 AM32.0 °F27.1 °F82 %29.56 in1.5 miWNW (300°)20.7 mph39.1 mphSnowLight Snow
4:15 AM30.6 °F24.3 °F77 %29.56 in1.8 miWNW (290°)35.7 mph51.8 mphSnowLight Snow
4:35 AM30.0 °F22.6 °F74 %29.58 in5.0 miWNW (290°)34.5 mph43.7 mphSnowLight Snow
4:55 AM28.9 °F19.2 °F67 %29.60 in10.0 miWest (280°)33.4 mph55.2 mphOvercast
5:15 AM28.2 °F19.4 °F70 %29.61 in10.0 miWest (280°)31.1 mph41.4 mphOvercast
5:35 AM27.3 °F19.2 °F72 %29.62 in7.0 miWest (280°)24.2 mph36.8 mphOvercast
5:55 AM27.0 °F18.9 °F72 %29.63 in5.0 miWest (280°)17.3 mph38.0 mphSnowLight Snow
6:15 AM26.6 °F18.5 °F71 %29.64 in7.0 miWest (270°)24.2 mph36.8 mphSnowLight Snow
6:35 AM26.2 °F17.2 °F69 %29.65 in5.0 miWest (270°)25.3 mph35.7 mphSnowLight Snow
6:55 AM25.7 °F15.4 °F65 %29.65 in7.0 miWNW (290°)19.6 mph35.7 mphSnowLight Snow
7:15 AM25.5 °F15.1 °F65 %29.67 in10.0 miWNW (300°)16.1 mph29.9 mphSnowLight Snow
7:55 AM25.3 °F16.2 °F68 %29.69 in10.0 miWest (280°)25.3 mph32.2 mphOvercast
8:15 AM25.3 °F16.0 °F68 %29.71 in10.0 miWest (260°)26.5 mph36.8 mphSnowLight Snow
8:35 AM25.5 °F17.1 °F70 %29.73 in4.0 miWest (280°)17.3 mph26.5 mphSnowLight Snow
9:15 AM25.7 °F17.2 °F70 %29.75 in3.0 miWest (280°)20.7 mph31.1 mphSnowLight Snow
9:35 AM25.5 °F13.8 °F61 %29.76 in7.0 miWest (280°)25.3 mph38.0 mphSnowLight Snow
9:55 AM25.7 °F14.2 °F62 %29.77 in10.0 miWNW (290°)20.7 mph34.5 mphOvercast
10:15 AM25.7 °F16.7 °F69 %29.78 in5.0 miWest (280°)10.4 mph29.9 mphSnowLight Snow
10:35 AM26.1 °F14.9 °F63 %29.78 in7.0 miWNW (290°)21.9 mph41.4 mphSnowLight Snow
10:55 AM26.6 °F15.4 °F63 %29.79 in10.0 miWest (270°)15.0 mph32.2 mphOvercast
11:15 AM26.6 °F15.4 °F63 %29.79 in10.0 miWest (280°)16.1 mph26.5 mphOvercast
11:35 AM27.5 °F15.8 °F61 %29.78 in10.0 miWest (280°)26.5 mph40.3 mphOvercast
11:55 AM27.3 °F16.5 °F64 %29.79 in10.0 miWest (280°)19.6 mph36.8 mphSnowLight Snow
12:15 PM27.0 °F17.4 °F67 %29.79 in5.0 miWSW (250°)12.7 mph29.9 mphSnowLight Snow
12:35 PM27.1 °F16.3 °F64 %29.78 in10.0 miWNW (290°)27.6 mph35.7 mphSnowLight Snow
12:55 PM27.5 °F17.2 °F65 %29.80 in10.0 miWSW (250°)10.4 mph24.2 mphSnowLight Snow
1:15 PM27.3 °F15.4 °F61 %29.79 in7.0 miWest (270°)21.9 mph33.4 mphSnowLight Snow
1:35 PM27.7 °F16.5 °F63 %29.80 in7.0 miWest (270°)18.4 mph27.6 mphSnowLight Snow
1:55 PM27.7 °F16.9 °F64 %29.81 in7.0 miWest (280°)11.5 mph33.4 mphSnowLight Snow
2:15 PM28.2 °F16.0 °F60 %29.79 in7.0 miWNW (290°)25.3 mph43.7 mphSnowLight Snow
2:35 PM27.3 °F19.0 °F71 %29.82 in1.8 miWest (280°)10.4 mph32.2 mphSnowLight Snow
2:55 PM26.8 °F19.2 °F73 %29.83 in1.5 miWNW (300°)10.4 mph24.2 mphSnowLight Snow
3:15 PM27.3 °F18.0 °F68 %29.83 in5.0 miWest (270°)16.1 mph31.1 mphSnowLight Snow
3:35 PM27.9 °F18.0 °F66 %29.83 in4.0 miWest (280°)23.0 mph40.3 mphSnowLight Snow
3:55 PM27.9 °F15.1 °F59 %29.83 in10.0 miWest (280°)29.9 mph40.3 mphOvercast
4:15 PM28.4 °F15.4 °F58 %29.83 in10.0 miWNW (290°)21.9 mph38.0 mphSnowLight Snow
4:35 PM28.9 °F14.0 °F54 %29.83 in10.0 miWNW (290°)18.4 mph28.8 mphScattered Clouds
4:55 PM29.3 °F13.3 °F51 %29.82 in10.0 miNW (310°)24.2 mph39.1 mphScattered Clouds
5:15 PM29.1 °F13.1 °F51 %29.82 in10.0 miWest (280°)15.0 mph35.7 mphClear
5:35 PM28.4 °F13.5 °F54 %29.82 in10.0 miWNW (290°)20.7 mph41.4 mphClear
5:55 PM28.8 °F14.2 °F55 %29.82 in10.0 miWNW (300°)23.0 mph34.5 mphClear
6:15 PM28.9 °F13.8 °F53 %29.82 in10.0 miWNW (290°)23.0 mph47.2 mphClear
6:35 PM29.1 °F14.2 °F54 %29.82 in10.0 miWNW (290°)25.3 mph42.6 mphClear
6:55 PM29.3 °F14.7 °F55 %29.83 in10.0 miWNW (290°)24.2 mph36.8 mphClear
7:15 PM29.1 °F15.3 °F56 %29.84 in10.0 miWest (280°)28.8 mph40.3 mphClear
7:35 PM29.1 °F15.8 °F58 %29.83 in10.0 miWNW (290°)31.1 mph38.0 mphClear
7:55 PM28.9 °F16.3 °F59 %29.84 in10.0 miWest (280°)25.3 mph39.1 mphClear
8:15 PM29.1 °F16.5 °F59 %29.83 in10.0 miWest (280°)28.8 mph40.3 mphClear
8:35 PM29.1 °F16.7 °F60 %29.84 in10.0 miWNW (290°)27.6 mph38.0 mphClear
8:55 PM29.1 °F16.7 °F60 %29.85 in10.0 miWest (270°)25.3 mph38.0 mphClear
Hourly data recorded from KGEV, located miles away from Sparta, North Carolina







STORIES FROM OUR PARTNERS